Погода в Асансоле

Индия     23°40′03″N   86°56′09″E
темп.,
°C
ветер,
м/с
пор.,
м/с
влажн.,
%
обл.,
%
осадки,
мм/ч
давл.,
гПа
погр.,
м
14 июня, пн
пн1423:30+29ююз247698 1.5 998208
02:30+28ююв237897 0.0 996131
05:30+28юв3679100 0.0 996425
08:30+31юв566243 0.0 9981170
11:30+33ююв6658100 1.9 9971523
14:30+33ю455880 3.9 9941467
17:30+31ю236597 8.9 994483
20:30+30ююв2372100 3.3 995130
15 июня, вт
вт1523:30+29ююв2376100 3.3 995112
02:30+28юв247976 0.1 994129
05:30+28юв358185 0.4 995276
08:30+32юв446334 0.1 996998
11:30+33ююв3358100 5.2 9951229
14:30+30зюз347268 6.5 994449
17:30+30зсз336787 6.6 994534
20:30+29ссз1275100 0.0 99582
16 июня, ср
ср1623:30+29ссз2277100 0.0 99593
02:30+27сз1186100 3.7 99378
05:30+27всв4785100 13.9 994220
08:30+29всв567588 4.2 996616
11:30+26св41090100 14.1 995779
14:30+26с51186100 2.9 994722
17:30+27ссз61182100 5.0 993551
20:30+27св81387100 3.6 994876
17 июня, чт
чт1723:30+25всв6991100 7.1 993643
02:30+25всв71193100 0.6 991796
05:30+25вюв81193100 0.9 992845
08:30+25вюв81088100 0.3 995913
11:30+26юв7986100 1.3 994827
14:30+27ююв81177100 0.4 9941100
17:30+27ююв7117785 0.5 994961
20:30+27юв61180100 0.1 996861
18 июня, пт
пт1823:30+26юв61186100 0.8 997701
02:30+26ююв4983100 0.3 996684
05:30+25ю4984100 2.0 997576
08:30+25ююв4683100 0.3 999415
11:30+27юв5978100 0.8 998930
14:30+27ю787598 0.2 997891
17:30+26ю51080100 0.2 997711
20:30+26ююв3881100 0.1 999465